Dewpoint
57 50 56 52 38 35 29 35 40 37 36 38 44 54 55 59 55 48 63 69 71 71 73 73 75 74 73 72 73 72 71 70 71 71 71 72 73 73 73 73 72 72 72 72 73 73 72 72 71
55 52 54 46 33 25 23 36 35 37 37 57 52 56 56 57 62 63 65 69 71 72 72 73 75 75 74 73 73 72 71 69 72 71 71 72 72 73 73 73 72 72 72 72 72 72 72 71 70
49 52 49 41 33 29 32 36 34 35 36 39 55 57 58 59 62 62 64 69 71 72 72 73 75 75 74 74 73 73 72 70 72 71 71 72 72 72 72 72 71 72 72 72 72 72 71 71 70
48 48 44 42 33 34 33 34 35 31 33 42 53 56 59 62 62 64 69 71 71 71 72 73 75 75 75 74 74 73 72 70 71 71 72 72 72 72 71 71 72 72 71 71 72 72 71 71 70
51 46 38 36 35 37 36 36 33 28 29 30 48 54 58 62 65 65 70 71 71 71 71 73 75 74 74 74 73 73 71 70 70 71 72 72 72 72 71 72 72 72 71 71 71 71 70 70 69
45 42 37 31 32 36 29 33 29 28 27 33 53 56 58 60 64 66 71 70 71 71 71 73 74 75 74 74 73 72 71 70 70 70 71 72 72 71 71 72 72 71 71 71 71 70 70 69 68
42 34 33 33 30 28 27 27 24 25 29 30 54 53 56 57 63 67 69 70 71 71 71 73 72 72 74 74 73 72 72 71 71 71 71 72 72 72 72 72 71 71 71 71 70 70 70 68 68
43 37 32 33 28 25 29 30 28 28 30 33 50 49 53 56 64 65 67 69 70 71 72 71 71 71 71 72 73 74 73 72 71 72 72 72 72 72 71 71 71 71 70 70 70 69 68 67 67
41 35 30 26 27 28 31 28 30 32 29 30 32 48 47 59 64 62 63 65 67 69 70 70 71 71 70 70 71 73 72 72 72 71 72 71 69 70 70 71 71 70 70 70 70 69 68 67 66
37 33 31 31 30 27 32 28 29 29 31 30 31 37 49 58 61 61 60 61 62 65 68 69 69 69 69 71 70 69 70 69 69 69 68 67 67 68 69 70 71 70 70 69 69 68 67 64 61
36 30 31 35 35 33 31 30 29 28 28 29 29 34 48 50 55 56 58 59 60 63 65 68 68 69 69 69 68 68 67 67 67 66 66 66 66 67 66 67 67 67 69 68 68 65 61 59 58
37 36 35 36 37 34 31 32 30 28 28 29 31 35 42 44 46 49 52 56 60 62 64 66 67 68 68 67 68 67 65 67 65 65 65 64 63 64 64 64 65 65 66 65 63 60 59 57 56
34 34 35 36 37 35 34 32 31 32 33 32 36 37 39 40 40 41 42 47 60 60 62 64 66 66 67 66 67 67 67 67 66 64 64 63 62 62 63 64 64 64 64 65 63 59 57 56 56
33 32 32 33 33 33 33 32 32 32 34 34 36 36 37 38 38 38 39 44 51 55 59 62 64 65 66 66 66 66 66 67 66 65 64 62 62 62 62 63 63 64 65 64 64 60 56 56 56
33 30 31 31 32 32 34 31 32 33 33 33 33 35 36 37 38 38 39 39 41 42 44 46 60 64 65 66 66 66 65 66 66 66 64 62 62 62 61 62 62 63 64 64 63 59 56 56 55
28 28 26 26 32 32 29 26 28 32 33 32 33 34 37 37 38 39 41 44 44 44 43 45 49 64 64 65 65 65 66 66 66 66 65 64 63 61 60 61 61 63 63 62 61 60 56 56 55
27 15 24 26 31 32 30 26 29 30 33 32 33 33 33 38 42 45 48 50 51 51 52 51 51 50 62 63 65 64 64 65 65 65 65 64 63 62 61 61 61 64 62 61 60 60 60 57 55
17 25 26 25 26 29 28 29 31 31 30 30 30 30 31 35 41 49 52 53 54 54 54 55 55 53 50 58 64 63 63 63 63 64 65 64 63 62 61 61 62 62 61 60 60 59 59 59 57
25 26 26 28 29 29 29 29 29 29 30 29 29 30 32 37 46 51 52 53 53 54 54 55 55 53 51 52 55 59 59 61 61 62 63 63 62 61 61 61 62 61 61 60 59 59 58 58 57
29 28 28 30 31 29 28 27 27 27 27 28 29 29 30 41 48 50 51 52 53 53 55 56 56 55 50 52 55 57 57 58 59 61 61 62 61 61 61 61 62 61 60 59 58 58 58 58 57
31 29 29 28 30 29 23 23 22 23 26 25 28 27 31 40 47 49 51 51 52 53 54 56 56 56 51 52 54 56 57 57 57 59 61 60 60 61 61 61 61 61 60 59 58 58 57 56 57
29 32 32 31 30 26 23 21 22 22 23 29 37 37 38 46 48 49 50 51 51 53 56 56 56 56 56 53 54 54 53 53 55 57 60 61 61 60 61 61 61 61 60 60 58 58 58 57 55
31 34 33 33 29 25 23 21 22 23 23 23 35 40 43 45 48 49 50 52 54 55 55 55 56 56 54 53 54 54 53 55 58 59 59 60 61 61 61 60 61 61 60 60 59 58 57 57 56
33 29 29 29 25 21 23 23 23 21 21 30 40 42 45 46 48 50 52 53 53 54 55 55 57 57 56 55 55 54 54 55 56 56 57 58 59 60 61 61 60 62 60 60 60 59 58 57 57
31 26 27 22 23 22 24 22 24 24 25 31 36 43 45 47 48 51 51 51 52 52 54 56 56 57 56 55 55 55 55 54 54 55 55 57 57 57 58 61 61 61 61 60 60 59 57 57 56
29 28 28 21 20 23 27 23 26 31 36 38 38 45 46 47 49 50 50 51 52 53 54 54 56 57 58 57 55 55 55 55 54 53 54 56 57 57 57 58 61 62 61 60 60 59 58 57 56
27 26 28 24 25 22 25 25 24 37 40 42 43 46 46 46 49 50 50 51 51 52 53 54 56 56 57 57 57 55 54 53 54 54 55 55 55 54 57 57 59 60 59 58 60 59 57 56 54
27 28 25 26 21 20 21 20 21 22 27 42 44 44 46 47 49 49 49 50 51 52 53 56 56 55 56 56 56 55 56 55 53 52 53 55 55 55 56 56 58 58 57 57 58 57 57 55 54
26 26 26 26 25 19 16 19 24 23 24 34 43 45 46 47 49 49 49 50 51 52 53 55 54 54 54 54 54 54 54 54 53 53 54 54 54 54 55 56 58 57 57 56 56 56 55 53 52
26 26 25 24 22 23 21 20 24 32 32 38 44 46 47 48 48 49 49 51 51 53 53 53 53 53 53 53 53 53 53 53 52 53 53 54 53 53 53 55 56 57 56 56 54 54 53 52 51
Lifted_Index
6 6 5 4 4 5 4 3 3 3 2 2 1 0 -1 -1 -1 -1 -2 -3 -3 -4 -4 -4 -5 -4 -4 -3 -3 -3 -2 -2 -2 -2 -2 -3 -3 -3 -3 -2 -2 -1 -1 -1 -0 -0 0 0 0
6 6 4 4 4 4 4 3 3 3 2 1 0 -0 -1 -2 -2 -2 -2 -3 -3 -4 -4 -4 -5 -4 -4 -4 -4 -3 -2 -2 -2 -3 -3 -3 -3 -3 -3 -2 -2 -2 -1 -1 -1 -0 -0 0 1
6 5 4 4 4 4 4 3 2 2 3 2 0 -1 -2 -2 -2 -2 -3 -3 -4 -4 -4 -4 -5 -5 -4 -4 -4 -3 -3 -2 -3 -3 -3 -3 -3 -3 -3 -2 -2 -2 -2 -1 -1 -1 -0 0 1
5 5 4 4 4 4 4 3 3 3 3 2 1 -1 -2 -3 -3 -3 -3 -3 -4 -4 -4 -4 -5 -5 -4 -4 -4 -4 -3 -2 -3 -3 -3 -4 -4 -3 -3 -3 -2 -2 -2 -1 -1 -1 -0 0 1
4 4 4 4 4 4 4 4 3 3 4 3 1 -1 -2 -3 -3 -3 -3 -4 -4 -4 -4 -4 -5 -5 -5 -4 -4 -3 -3 -2 -2 -3 -4 -4 -4 -3 -3 -3 -3 -3 -2 -2 -1 -1 -0 0 1
4 4 4 4 4 5 4 4 4 4 5 4 2 0 -1 -3 -3 -3 -3 -4 -3 -4 -4 -4 -5 -5 -5 -4 -4 -3 -2 -2 -2 -2 -3 -4 -4 -3 -3 -3 -3 -3 -2 -2 -1 -1 -0 0 1
5 4 4 4 4 4 5 4 4 5 5 5 3 1 -0 -2 -3 -3 -3 -3 -4 -4 -4 -4 -4 -4 -4 -4 -4 -3 -3 -2 -2 -2 -3 -3 -3 -3 -3 -3 -3 -2 -2 -2 -1 -1 0 1 1
5 4 4 4 4 4 5 5 5 5 6 6 4 3 1 -1 -2 -3 -3 -3 -4 -4 -4 -4 -4 -3 -3 -3 -3 -4 -3 -3 -3 -3 -3 -3 -3 -3 -3 -3 -2 -2 -2 -2 -1 -1 0 1 2
5 5 4 4 4 5 5 5 5 6 6 7 6 5 3 -0 -2 -2 -2 -3 -3 -4 -4 -4 -3 -3 -3 -3 -3 -3 -3 -3 -3 -3 -3 -3 -3 -3 -3 -3 -2 -2 -2 -2 -1 -0 1 2 2
6 5 5 6 6 6 6 6 6 7 7 7 7 6 4 1 -1 -0 -0 -1 -2 -3 -3 -3 -3 -3 -2 -2 -2 -3 -3 -2 -2 -2 -3 -3 -3 -3 -3 -3 -2 -2 -2 -1 -1 -0 1 2 3
6 6 7 7 6 6 6 7 7 7 7 7 7 7 4 2 1 2 2 1 -0 -2 -2 -3 -3 -3 -2 -2 -2 -2 -2 -2 -2 -2 -2 -2 -2 -3 -3 -3 -2 -2 -1 -1 -1 0 1 3 3
7 7 7 7 7 7 7 7 7 7 7 7 8 7 5 4 5 5 5 3 1 -0 -1 -2 -2 -2 -2 -3 -2 -2 -2 -2 -2 -2 -2 -2 -2 -2 -2 -2 -2 -1 -1 -1 -0 0 2 3 4
7 7 7 7 7 7 7 7 7 7 7 8 8 8 7 7 7 7 6 5 3 1 1 0 -1 -1 -2 -2 -2 -2 -2 -1 -1 -1 -2 -2 -2 -2 -1 -1 -1 -1 -1 -1 -0 0 1 2 3
8 7 7 7 7 7 7 7 7 7 8 8 8 8 8 8 8 7 7 6 4 3 3 2 1 -1 -1 -2 -2 -1 -1 -1 -1 -1 -2 -2 -2 -2 -1 -1 -1 -1 -1 -1 -0 -0 1 2 3
8 7 7 7 7 8 7 6 7 8 8 8 8 8 8 8 7 7 7 7 6 5 5 5 3 1 -1 -1 -1 -1 -0 -1 -1 -2 -2 -3 -3 -2 -2 -1 -1 -0 -0 -0 -0 -0 1 2 2
7 6 6 6 7 7 6 5 6 8 8 8 8 8 8 8 7 7 7 7 7 7 7 7 5 3 1 -1 -1 -0 -0 -1 -2 -2 -2 -3 -3 -3 -2 -1 -1 -0 0 0 -0 0 0 1 2
6 5 5 6 7 7 6 5 6 7 8 8 8 8 8 8 8 7 7 8 8 8 7 7 7 5 3 1 -0 -1 -1 -1 -2 -2 -2 -2 -3 -3 -2 -2 -1 -0 0 0 -0 -0 0 1 2
5 5 5 6 7 7 6 6 6 7 7 7 7 8 8 8 8 8 8 8 7 7 7 7 7 6 5 4 1 -0 -1 -1 -1 -1 -2 -3 -3 -3 -2 -2 -1 -1 -0 -0 -0 -0 0 1 2
6 6 5 6 7 7 6 6 6 6 7 7 7 7 8 8 8 8 8 7 7 7 7 7 7 7 7 6 4 2 0 0 0 -0 -1 -3 -3 -3 -2 -1 -1 -1 -1 -1 -1 -0 0 2 2
6 5 5 5 6 7 6 6 5 6 6 6 7 7 7 8 8 8 7 7 7 7 6 6 6 6 6 6 5 3 2 1 1 0 -1 -3 -3 -3 -2 -1 -0 -1 -1 -1 -1 -0 1 2 3
5 5 5 5 6 6 6 4 4 5 5 6 6 7 7 8 8 8 7 7 7 6 6 5 5 6 6 6 5 4 3 2 1 0 -1 -2 -2 -2 -1 -0 -0 -0 -0 -0 -0 1 2 3 3
5 5 5 6 6 5 5 3 3 4 4 5 6 7 7 8 8 7 7 7 6 6 5 5 5 5 5 5 5 4 3 2 2 1 -1 -1 -1 -1 -1 -0 -0 -0 0 0 0 1 2 3 3
4 4 5 5 5 5 4 3 3 3 3 4 6 7 7 7 7 7 7 6 6 6 5 5 5 4 4 5 5 4 3 2 1 1 -0 -1 -1 -1 -1 -1 -1 -0 0 0 1 1 2 2 3
3 4 4 4 4 3 4 3 3 3 4 4 5 6 7 7 7 7 6 6 6 6 6 5 4 4 4 4 3 3 2 1 1 1 0 -0 -0 -1 -1 -1 -1 -1 -1 -0 0 1 1 2 3
3 3 2 2 2 2 3 3 3 4 5 5 5 6 6 7 7 6 6 6 6 6 6 5 4 3 3 3 2 2 1 1 1 1 1 1 0 -0 -1 -1 -1 -1 -1 -1 0 1 1 2 2
2 2 2 1 1 2 4 4 4 5 5 5 5 5 6 6 6 6 6 6 6 6 6 6 4 3 2 2 2 1 1 0 0 1 1 1 1 0 -0 -1 -1 -1 -1 -1 0 1 1 2 2
2 2 2 1 1 2 4 4 4 4 5 5 5 5 5 5 6 6 6 6 6 6 6 6 5 3 2 2 2 1 1 1 1 1 1 1 1 1 1 1 -0 -1 -1 -1 -0 1 1 2 2
2 2 2 2 1 2 2 3 3 4 4 5 5 5 5 5 5 6 6 6 7 7 7 6 5 4 3 3 2 2 2 1 1 1 1 1 1 2 2 1 1 -0 -1 -1 -0 0 1 2 3
1 1 1 2 2 1 2 2 3 3 3 4 4 4 4 5 5 5 6 6 7 7 7 7 6 5 4 3 3 3 2 2 2 2 2 2 2 2 2 2 1 0 -0 -0 -0 0 2 3 3
1 1 1 1 2 2 2 2 2 3 3 4 4 4 4 4 4 5 6 6 7 7 7 7 6 5 4 4 3 3 3 3 2 2 2 2 2 2 2 2 1 1 1 0 0 1 2 3 4